Location: Bakhuizen
(52.8696°N, 5.4575°E)
Time: 08:34:14
(UTC+00:00)

USA 305 - Pass Details

Date: 11 May 2021
Orbit: 567 x 573 km, 54.0° (Epoch: 07 May)

Event Time Altitude Azimuth Distance (km) Brightness Sun altitude
Rises 20:20:50 0° 287° (WNW) 2,774 7.7 -7.6°
Reaches altitude 10° 20:23:06 10° 285° (WNW) 1,876 6.6 -7.9°
Maximum altitude 20:27:19 65° 204° (SSW) 632 3.0 -8.3°
Enters shadow 20:31:23 11° 123° (ESE) 1,809 4.8 -8.8°
